Time,TemperatureF,DewpointF,PressureIn,WindDirection,WindDirectionDegrees,WindSpeedMPH,WindSpeedGustMPH,Humidity,HourlyPrecipIn,Conditions,Clouds,dailyrainin,SoftwareType,DateUTC
2013-04-28 00:04:00,52.8,52.0,30.26,North,0,0.0,0.0,97,0.00,,-RA,0.00,VWS V14.01,2013-04-28 04:04:00,
2013-04-28 00:05:00,52.8,52.0,30.26,NE,41,0.0,0.0,97,0.01,,-RA,0.00,VWS V14.01,2013-04-28 04:05:00,
2013-04-28 00:10:00,52.7,51.9,30.26,ENE,75,0.0,1.0,97,0.01,,-RA,0.00,VWS V14.01,2013-04-28 04:10:00,
2013-04-28 00:15:00,52.8,52.0,30.27,ENE,75,0.0,0.0,97,0.01,,-RA,0.00,VWS V14.01,2013-04-28 04:15:00,
2013-04-28 00:20:00,52.7,51.9,30.27,ENE,75,0.0,0.0,97,0.01,,-RA,0.00,VWS V14.01,2013-04-28 04:20:00,
2013-04-28 00:25:00,52.7,51.9,30.27,ENE,75,0.0,0.0,97,0.01,,-RA,0.00,VWS V14.01,2013-04-28 04:25:00,
2013-04-28 00:30:00,52.7,51.9,30.27,ENE,71,0.0,0.0,97,0.01,,-RA,0.00,VWS V14.01,2013-04-28 04:30:00,
2013-04-28 00:35:00,52.7,51.9,30.26,NNW,342,0.0,0.0,97,0.01,,-RA,0.00,VWS V14.01,2013-04-28 04:35:00,
2013-04-28 00:40:00,52.8,52.2,30.26,NNW,342,0.0,0.0,98,0.00,,,0.00,VWS V14.01,2013-04-28 04:40:00,
2013-04-28 00:45:00,52.8,52.2,30.26,NNW,342,0.0,0.0,98,0.00,,,0.00,VWS V14.01,2013-04-28 04:45:00,
2013-04-28 00:50:00,52.7,51.9,30.27,NNW,342,0.0,0.0,97,0.00,,,0.00,VWS V14.01,2013-04-28 04:50:00,
2013-04-28 00:55:00,52.7,52.2,30.27,NNW,342,0.0,0.0,98,0.00,,,0.00,VWS V14.01,2013-04-28 04:55:00,
2013-04-28 01:00:00,52.7,52.2,30.26,NNE,23,0.0,1.0,98,0.00,,,0.00,VWS V14.01,2013-04-28 05:00:00,
2013-04-28 01:05:00,52.6,52.0,30.27,NNE,23,0.0,0.0,98,0.00,,,0.00,VWS V14.01,2013-04-28 05:05:00,
2013-04-28 01:10:00,52.6,52.0,30.26,NNE,23,0.0,0.0,98,0.01,,,0.01,VWS V14.01,2013-04-28 05:10:00,
2013-04-28 01:15:00,52.7,52.2,30.26,NNE,23,0.0,0.0,98,0.01,,,0.01,VWS V14.01,2013-04-28 05:15:00,
2013-04-28 01:20:00,52.7,52.2,30.26,NNE,23,0.0,0.0,98,0.01,,,0.01,VWS V14.01,2013-04-28 05:20:00,
2013-04-28 01:25:00,52.7,52.2,30.25,NNE,23,0.0,0.0,98,0.01,,,0.01,VWS V14.01,2013-04-28 05:25:00,
2013-04-28 01:30:00,52.6,52.0,30.25,NNE,23,0.0,0.0,98,0.01,,,0.01,VWS V14.01,2013-04-28 05:30:00,
2013-04-28 01:35:00,52.6,52.0,30.26,NNE,23,0.0,0.0,98,0.01,,,0.01,VWS V14.01,2013-04-28 05:35:00,
2013-04-28 01:40:00,52.6,52.0,30.26,NNE,23,0.0,0.0,98,0.01,,-RA,0.01,VWS V14.01,2013-04-28 05:40:00,
2013-04-28 01:45:00,52.7,52.2,30.25,NNE,23,0.0,0.0,98,0.01,,-RA,0.01,VWS V14.01,2013-04-28 05:45:00,
2013-04-28 01:50:00,52.8,52.2,30.25,NNE,23,0.0,0.0,98,0.01,,-RA,0.01,VWS V14.01,2013-04-28 05:50:00,
2013-04-28 01:55:00,52.7,52.2,30.25,NNE,23,0.0,0.0,98,0.01,,-RA,0.01,VWS V14.01,2013-04-28 05:55:00,
2013-04-28 02:00:00,52.7,52.2,30.25,NNE,23,0.0,0.0,98,0.01,,,0.01,VWS V14.01,2013-04-28 06:00:00,
2013-04-28 02:05:00,52.7,52.2,30.24,NNE,23,0.0,0.0,98,0.01,,,0.01,VWS V14.01,2013-04-28 06:05:00,
2013-04-28 02:10:00,52.7,52.2,30.24,NNE,23,0.0,0.0,98,0.00,,,0.01,VWS V14.01,2013-04-28 06:10:00,
2013-04-28 02:15:00,52.6,52.0,30.25,NNE,23,0.0,0.0,98,0.00,,,0.01,VWS V14.01,2013-04-28 06:15:00,
2013-04-28 02:20:00,52.6,52.0,30.24,NNE,23,0.0,0.0,98,0.00,,,0.01,VWS V14.01,2013-04-28 06:20:00,
2013-04-28 02:25:00,52.6,52.0,30.24,NNE,23,0.0,0.0,98,0.00,,,0.01,VWS V14.01,2013-04-28 06:25:00,
2013-04-28 02:30:00,52.7,52.2,30.23,NNE,23,0.0,0.0,98,0.00,,,0.01,VWS V14.01,2013-04-28 06:30:00,
2013-04-28 02:34:00,52.5,52.0,30.22,NE,36,0.0,1.0,98,0.00,,,0.01,VWS V14.01,2013-04-28 06:34:00,
2013-04-28 02:39:00,52.5,52.0,30.22,NE,36,0.0,0.0,98,0.00,,,0.01,VWS V14.01,2013-04-28 06:39:00,
2013-04-28 02:44:00,52.6,52.0,30.22,NE,36,0.0,0.0,98,0.00,,,0.01,VWS V14.01,2013-04-28 06:44:00,
2013-04-28 02:49:00,52.6,52.0,30.22,NE,36,0.0,0.0,98,0.00,,,0.01,VWS V14.01,2013-04-28 06:49:00,
2013-04-28 02:54:00,52.6,52.0,30.22,NE,36,0.0,0.0,98,0.00,,,0.01,VWS V14.01,2013-04-28 06:54:00,
2013-04-28 02:59:00,52.7,52.2,30.22,NNW,336,0.0,1.0,98,0.00,,,0.01,VWS V14.01,2013-04-28 06:59:00,
2013-04-28 03:04:00,52.7,52.2,30.22,WNW,290,0.0,0.0,98,0.00,,,0.01,VWS V14.01,2013-04-28 07:04:00,
2013-04-28 03:09:00,52.7,52.2,30.22,WNW,289,0.0,0.0,98,0.00,,,0.01,VWS V14.01,2013-04-28 07:09:00,
2013-04-28 03:14:00,52.6,52.0,30.22,WNW,289,0.0,0.0,98,0.00,,,0.01,VWS V14.01,2013-04-28 07:14:00,
2013-04-28 03:19:00,52.6,52.0,30.22,WNW,289,0.0,0.0,98,0.00,,,0.01,VWS V14.01,2013-04-28 07:19:00,
2013-04-28 03:24:00,52.6,52.0,30.22,WNW,290,0.0,0.0,98,0.00,,,0.01,VWS V14.01,2013-04-28 07:24:00,
2013-04-28 03:29:00,52.6,52.0,30.22,WNW,291,0.0,0.0,98,0.00,,,0.01,VWS V14.01,2013-04-28 07:29:00,
2013-04-28 03:34:00,52.6,52.0,30.23,WNW,290,0.0,0.0,98,0.00,,,0.01,VWS V14.01,2013-04-28 07:34:00,
2013-04-28 03:39:00,52.6,52.0,30.23,WNW,291,0.0,0.0,98,0.00,,,0.01,VWS V14.01,2013-04-28 07:39:00,
2013-04-28 03:44:00,52.6,52.0,30.22,SSW,210,0.0,0.0,98,0.00,,,0.01,VWS V14.01,2013-04-28 07:44:00,
2013-04-28 03:49:00,52.6,52.0,30.22,SSW,209,0.0,0.0,98,0.00,,,0.01,VWS V14.01,2013-04-28 07:49:00,
2013-04-28 03:54:00,52.6,52.0,30.22,SSW,210,0.0,0.0,98,0.00,,,0.01,VWS V14.01,2013-04-28 07:54:00,
2013-04-28 03:59:00,52.5,52.0,30.22,SSW,210,0.0,0.0,98,0.00,,,0.01,VWS V14.01,2013-04-28 07:59:00,
2013-04-28 04:04:00,52.6,52.0,30.21,SSW,210,0.0,0.0,98,0.00,,,0.01,VWS V14.01,2013-04-28 08:04:00,
2013-04-28 04:09:00,52.5,52.0,30.22,SSW,210,0.0,0.0,98,0.00,,,0.01,VWS V14.01,2013-04-28 08:09:00,
2013-04-28 04:14:00,52.5,52.0,30.22,SSW,210,0.0,0.0,98,0.00,,,0.01,VWS V14.01,2013-04-28 08:14:00,
2013-04-28 04:19:00,52.6,52.0,30.22,SSW,210,0.0,0.0,98,0.00,,,0.01,VWS V14.01,2013-04-28 08:19:00,
2013-04-28 04:24:00,52.6,52.0,30.22,North,8,1.0,1.0,98,0.00,,,0.01,VWS V14.01,2013-04-28 08:24:00,
2013-04-28 04:29:00,52.5,52.0,30.21,NNE,27,0.0,0.0,98,0.00,,,0.01,VWS V14.01,2013-04-28 08:29:00,
2013-04-28 04:34:00,52.5,52.0,30.21,NNE,27,0.0,0.0,98,0.00,,,0.01,VWS V14.01,2013-04-28 08:34:00,
2013-04-28 04:39:00,52.5,52.0,30.21,NNE,27,0.0,0.0,98,0.00,,,0.01,VWS V14.01,2013-04-28 08:39:00,
2013-04-28 04:44:00,52.5,52.0,30.21,NNE,27,0.0,0.0,98,0.00,,,0.01,VWS V14.01,2013-04-28 08:44:00,
2013-04-28 04:49:00,52.5,52.0,30.21,NNE,27,0.0,0.0,98,0.00,,,0.01,VWS V14.01,2013-04-28 08:49:00,
2013-04-28 04:54:00,52.5,52.0,30.22,NNE,27,0.0,0.0,98,0.00,,,0.01,VWS V14.01,2013-04-28 08:54:00,
2013-04-28 04:59:00,52.4,51.8,30.22,NNE,27,0.0,0.0,98,0.00,,,0.01,VWS V14.01,2013-04-28 08:59:00,
2013-04-28 05:04:00,52.5,52.0,30.23,NNE,27,0.0,0.0,98,0.00,,,0.01,VWS V14.01,2013-04-28 09:04:00,
2013-04-28 05:09:00,52.4,51.8,30.22,NNE,27,0.0,0.0,98,0.00,,,0.01,VWS V14.01,2013-04-28 09:09:00,
2013-04-28 05:14:00,52.4,51.8,30.22,NNE,27,0.0,0.0,98,0.00,,,0.01,VWS V14.01,2013-04-28 09:14:00,
2013-04-28 05:19:00,52.4,51.8,30.22,NNE,27,0.0,0.0,98,0.00,,,0.01,VWS V14.01,2013-04-28 09:19:00,
2013-04-28 05:24:00,52.5,52.0,30.22,ESE,109,0.0,0.0,98,0.00,,,0.01,VWS V14.01,2013-04-28 09:24:00,
2013-04-28 05:29:00,52.4,51.8,30.21,ESE,109,0.0,0.0,98,0.00,,,0.01,VWS V14.01,2013-04-28 09:29:00,
2013-04-28 05:34:00,52.3,51.8,30.21,NE,43,0.0,0.0,98,0.00,,,0.01,VWS V14.01,2013-04-28 09:34:00,
2013-04-28 05:39:00,52.3,51.8,30.21,NE,43,0.0,0.0,98,0.00,,,0.01,VWS V14.01,2013-04-28 09:39:00,
2013-04-28 05:44:00,52.3,51.8,30.21,NE,43,0.0,0.0,98,0.00,,,0.01,VWS V14.01,2013-04-28 09:44:00,
2013-04-28 05:49:00,52.3,51.8,30.21,NE,43,0.0,0.0,98,0.00,,,0.01,VWS V14.01,2013-04-28 09:49:00,
2013-04-28 05:54:00,52.3,51.8,30.21,NE,43,0.0,0.0,98,0.00,,,0.01,VWS V14.01,2013-04-28 09:54:00,
2013-04-28 05:59:00,52.4,51.8,30.21,NE,43,0.0,0.0,98,0.00,,,0.01,VWS V14.01,2013-04-28 09:59:00,
2013-04-28 06:04:00,52.4,51.8,30.21,NE,43,0.0,0.0,98,0.00,,,0.01,VWS V14.01,2013-04-28 10:04:00,
2013-04-28 06:09:00,52.3,51.8,30.21,NE,43,0.0,0.0,98,0.00,,,0.01,VWS V14.01,2013-04-28 10:09:00,
2013-04-28 06:14:00,52.3,51.8,30.21,NE,43,0.0,0.0,98,0.00,,,0.01,VWS V14.01,2013-04-28 10:14:00,
2013-04-28 06:19:00,52.3,51.8,30.21,NE,46,0.0,0.0,98,0.00,,,0.01,VWS V14.01,2013-04-28 10:19:00,
2013-04-28 06:24:00,52.2,51.7,30.21,NE,46,0.0,0.0,98,0.00,,,0.01,VWS V14.01,2013-04-28 10:24:00,
2013-04-28 06:29:00,52.2,51.7,30.21,NE,45,0.0,0.0,98,0.00,,,0.01,VWS V14.01,2013-04-28 10:29:00,
2013-04-28 06:34:00,52.2,51.7,30.21,NE,45,0.0,0.0,98,0.00,,,0.01,VWS V14.01,2013-04-28 10:34:00,
2013-04-28 06:39:00,52.3,51.8,30.21,NE,45,0.0,0.0,98,0.00,,,0.01,VWS V14.01,2013-04-28 10:39:00,
2013-04-28 06:44:00,52.2,51.7,30.21,ENE,70,0.0,0.0,98,0.00,,,0.01,VWS V14.01,2013-04-28 10:44:00,
2013-04-28 06:49:00,52.2,51.7,30.21,ENE,71,0.0,0.0,98,0.00,,,0.01,VWS V14.01,2013-04-28 10:49:00,
2013-04-28 06:54:00,52.2,51.7,30.21,ENE,71,0.0,0.0,98,0.00,,,0.01,VWS V14.01,2013-04-28 10:54:00,
2013-04-28 07:00:00,52.1,51.5,30.21,ENE,70,0.0,0.0,98,0.00,,,0.01,VWS V14.01,2013-04-28 11:00:00,
2013-04-28 07:05:00,52.1,51.5,30.21,ENE,70,0.0,0.0,98,0.00,,,0.01,VWS V14.01,2013-04-28 11:05:00,
2013-04-28 07:10:00,52.2,51.7,30.22,ENE,70,0.0,0.0,98,0.00,,,0.01,VWS V14.01,2013-04-28 11:10:00,
2013-04-28 07:15:00,52.2,51.7,30.22,ENE,70,0.0,0.0,98,0.00,,,0.01,VWS V14.01,2013-04-28 11:15:00,
2013-04-28 07:20:00,52.3,51.8,30.22,ENE,70,0.0,0.0,98,0.00,,,0.01,VWS V14.01,2013-04-28 11:20:00,
2013-04-28 07:25:00,52.2,51.7,30.21,ENE,70,0.0,0.0,98,0.00,,,0.01,VWS V14.01,2013-04-28 11:25:00,
2013-04-28 07:30:00,52.2,51.7,30.21,NE,41,0.0,0.0,98,0.00,,,0.01,VWS V14.01,2013-04-28 11:30:00,
2013-04-28 07:35:00,52.2,51.7,30.21,NE,41,0.0,0.0,98,0.00,,,0.01,VWS V14.01,2013-04-28 11:35:00,
2013-04-28 07:40:00,52.3,51.8,30.21,NE,41,0.0,0.0,98,0.00,,-RA,0.01,VWS V14.01,2013-04-28 11:40:00,
2013-04-28 07:45:00,52.4,51.8,30.21,NE,41,0.0,0.0,98,0.00,,-RA,0.01,VWS V14.01,2013-04-28 11:45:00,
2013-04-28 07:50:00,52.4,51.8,30.21,NE,41,0.0,0.0,98,0.00,,-RA,0.01,VWS V14.01,2013-04-28 11:50:00,
2013-04-28 07:55:00,52.5,52.0,30.21,NE,41,0.0,0.0,98,0.00,,-RA,0.01,VWS V14.01,2013-04-28 11:55:00,
2013-04-28 08:00:00,52.5,52.0,30.21,NE,35,0.0,1.0,98,0.00,,,0.01,VWS V14.01,2013-04-28 12:00:00,
2013-04-28 08:05:00,52.6,52.0,30.21,NE,36,0.0,0.0,98,0.00,,,0.01,VWS V14.01,2013-04-28 12:05:00,
2013-04-28 08:10:00,52.6,52.0,30.22,NE,36,0.0,1.0,98,0.00,,,0.01,VWS V14.01,2013-04-28 12:10:00,
2013-04-28 08:15:00,52.7,52.4,30.22,NNE,32,0.0,0.0,99,0.00,,,0.01,VWS V14.01,2013-04-28 12:15:00,
2013-04-28 08:20:00,52.6,52.0,30.21,NNE,32,0.0,0.0,98,0.00,,,0.01,VWS V14.01,2013-04-28 12:20:00,
2013-04-28 08:25:00,52.7,52.2,30.21,NE,46,1.0,2.0,98,0.00,,,0.01,VWS V14.01,2013-04-28 12:25:00,
2013-04-28 08:30:00,52.7,52.2,30.21,North,1,0.0,0.0,98,0.00,,,0.01,VWS V14.01,2013-04-28 12:30:00,
2013-04-28 08:35:00,52.8,52.2,30.22,North,1,0.0,1.0,98,0.00,,,0.01,VWS V14.01,2013-04-28 12:35:00,
2013-04-28 08:40:00,52.8,52.2,30.22,North,1,0.0,1.0,98,0.00,,-RA,0.01,VWS V14.01,2013-04-28 12:40:00,
2013-04-28 08:45:00,52.8,52.2,30.22,NE,44,0.0,1.0,98,0.00,,-RA,0.01,VWS V14.01,2013-04-28 12:45:00,
2013-04-28 08:50:00,52.8,52.2,30.22,NE,41,0.0,0.0,98,0.00,,-RA,0.01,VWS V14.01,2013-04-28 12:50:00,
2013-04-28 08:55:00,52.8,52.2,30.22,North,3,0.0,0.0,98,0.00,,-RA,0.01,VWS V14.01,2013-04-28 12:55:00,
2013-04-28 09:00:00,52.9,52.3,30.22,North,3,0.0,0.0,98,0.01,,OVC038,0.02,VWS V14.01,2013-04-28 13:00:00,
2013-04-28 09:05:00,53.1,52.5,30.22,North,3,0.0,0.0,98,0.02,,OVC038,0.03,VWS V14.01,2013-04-28 13:05:00,
2013-04-28 09:10:00,53.1,52.5,30.22,NE,36,0.0,0.0,98,0.02,,OVC038,0.03,VWS V14.01,2013-04-28 13:10:00,
2013-04-28 09:15:00,53.2,52.7,30.22,NE,35,0.0,0.0,98,0.03,,OVC038,0.04,VWS V14.01,2013-04-28 13:15:00,
2013-04-28 09:20:00,53.3,52.8,30.21,NE,36,1.0,1.0,98,0.03,,RA,0.04,VWS V14.01,2013-04-28 13:20:00,
2013-04-28 09:25:00,53.2,52.7,30.22,NE,44,0.0,0.0,98,0.04,,RA,0.05,VWS V14.01,2013-04-28 13:25:00,
2013-04-28 09:30:00,53.2,52.7,30.22,NNE,30,0.0,1.0,98,0.05,,RA,0.06,VWS V14.01,2013-04-28 13:30:00,
2013-04-28 09:35:00,53.3,52.8,30.22,NNE,32,0.0,0.0,98,0.07,,RA,0.08,VWS V14.01,2013-04-28 13:35:00,
2013-04-28 09:40:00,53.3,52.8,30.22,NE,50,1.0,1.0,98,0.07,,RA,0.08,VWS V14.01,2013-04-28 13:40:00,
2013-04-28 09:45:00,53.4,52.8,30.21,NE,41,0.0,1.0,98,0.07,,RA,0.08,VWS V14.01,2013-04-28 13:45:00,
2013-04-28 09:50:00,53.4,52.8,30.22,NE,43,0.0,0.0,98,0.08,,RA,0.09,VWS V14.01,2013-04-28 13:50:00,
2013-04-28 09:55:00,53.5,53.0,30.21,NE,43,0.0,0.0,98,0.08,,RA,0.09,VWS V14.01,2013-04-28 13:55:00,
2013-04-28 10:00:00,53.5,53.0,30.21,North,349,0.0,2.0,98,0.07,,-RA,0.09,VWS V14.01,2013-04-28 14:00:00,
2013-04-28 10:05:00,53.5,53.0,30.21,NE,36,1.0,1.0,98,0.08,,-RA,0.10,VWS V14.01,2013-04-28 14:05:00,
2013-04-28 10:10:00,53.4,52.8,30.21,North,353,1.0,2.0,98,0.07,,-RA,0.10,VWS V14.01,2013-04-28 14:10:00,
2013-04-28 10:15:00,53.4,52.8,30.21,NNE,32,2.0,2.0,98,0.07,,-RA,0.11,VWS V14.01,2013-04-28 14:15:00,
2013-04-28 10:20:00,53.5,53.0,30.21,North,360,2.0,2.0,98,0.08,,RA,0.12,VWS V14.01,2013-04-28 14:20:00,
2013-04-28 10:25:00,53.4,52.6,30.21,NNE,23,0.0,1.0,97,0.09,,RA,0.13,VWS V14.01,2013-04-28 14:25:00,
2013-04-28 10:30:00,53.4,52.8,30.22,NW,315,1.0,2.0,98,0.08,,RA,0.14,VWS V14.01,2013-04-28 14:30:00,
2013-04-28 10:35:00,53.4,52.6,30.25,WNW,297,2.0,3.0,97,0.12,,RA,0.19,VWS V14.01,2013-04-28 14:35:00,
2013-04-28 10:40:00,53.2,52.7,30.24,WSW,248,1.0,1.0,98,0.20,, +RA,0.28,VWS V14.01,2013-04-28 14:40:00,
2013-04-28 10:45:00,53.0,52.2,30.24,NW,305,1.0,1.0,97,0.26,, +RA,0.34,VWS V14.01,2013-04-28 14:45:00,
2013-04-28 10:50:00,52.9,52.1,30.23,NW,305,1.0,2.0,97,0.28,, +RA,0.37,VWS V14.01,2013-04-28 14:50:00,
2013-04-28 10:55:00,52.8,52.0,30.23,North,359,0.0,0.0,97,0.31,, +RA,0.40,VWS V14.01,2013-04-28 14:55:00,
2013-04-28 11:00:00,52.8,52.2,30.24,SW,229,0.0,0.0,98,0.33,, +RA,0.42,VWS V14.01,2013-04-28 15:00:00,
2013-04-28 11:05:00,52.5,51.7,30.24,WNW,290,3.0,3.0,97,0.33,, +RA,0.43,VWS V14.01,2013-04-28 15:05:00,
2013-04-28 11:10:00,52.4,51.6,30.24,WSW,248,0.0,0.0,97,0.35,, +RA,0.45,VWS V14.01,2013-04-28 15:10:00,
2013-04-28 11:15:00,52.1,51.0,30.24,West,264,0.0,0.0,96,0.37,, +RA,0.48,VWS V14.01,2013-04-28 15:15:00,
2013-04-28 11:20:00,52.0,51.2,30.24,West,277,0.0,0.0,97,0.41,, +RA,0.53,VWS V14.01,2013-04-28 15:20:00,
2013-04-28 11:25:00,51.7,50.6,30.22,NNE,30,0.0,1.0,96,0.46,, +RA,0.59,VWS V14.01,2013-04-28 15:25:00,
2013-04-28 11:30:00,51.7,50.9,30.23,NNE,30,0.0,0.0,97,0.48,, +RA,0.62,VWS V14.01,2013-04-28 15:30:00,
2013-04-28 11:35:00,51.7,50.9,30.22,NNE,30,0.0,0.0,97,0.46,, +RA,0.64,VWS V14.01,2013-04-28 15:35:00,
2013-04-28 11:40:00,51.8,51.0,30.22,NNE,30,0.0,1.0,97,0.39,, +RA,0.65,VWS V14.01,2013-04-28 15:40:00,
2013-04-28 11:45:00,51.9,51.1,30.22,North,11,1.0,1.0,97,0.33,, +RA,0.66,VWS V14.01,2013-04-28 15:45:00,
2013-04-28 11:50:00,51.8,51.0,30.22,NE,38,2.0,3.0,97,0.30,, +RA,0.67,VWS V14.01,2013-04-28 15:50:00,
2013-04-28 11:55:00,51.8,51.0,30.22,WNW,289,0.0,0.0,97,0.29,, +RA,0.68,VWS V14.01,2013-04-28 15:55:00,
2013-04-28 12:00:00,51.9,51.1,30.22,NNE,32,0.0,1.0,97,0.28,,RA,0.69,VWS V14.01,2013-04-28 16:00:00,
2013-04-28 12:05:00,52.1,51.3,30.22,NNE,25,0.0,1.0,97,0.27,,RA,0.70,VWS V14.01,2013-04-28 16:05:00,
2013-04-28 12:10:00,52.0,51.2,30.21,NW,321,1.0,1.0,97,0.27,,RA,0.71,VWS V14.01,2013-04-28 16:10:00,
2013-04-28 12:14:00,51.9,51.1,30.22,WNW,291,0.0,0.0,97,0.24,,RA,0.71,VWS V14.01,2013-04-28 16:14:00,
2013-04-28 12:19:00,52.1,51.3,30.22,WNW,293,0.0,1.0,97,0.21,,RA,0.73,VWS V14.01,2013-04-28 16:19:00,
2013-04-28 12:24:00,52.2,51.4,30.21,NNW,343,0.0,1.0,97,0.16,,RA,0.74,VWS V14.01,2013-04-28 16:24:00,
2013-04-28 12:29:00,52.0,51.2,30.21,NNW,329,0.0,1.0,97,0.13,,RA,0.75,VWS V14.01,2013-04-28 16:29:00,
2013-04-28 12:34:00,52.1,51.3,30.21,NNE,32,0.0,1.0,97,0.13,,RA,0.77,VWS V14.01,2013-04-28 16:34:00,
2013-04-28 12:39:00,52.1,51.3,30.21,NW,311,1.0,1.0,97,0.14,,RA,0.79,VWS V14.01,2013-04-28 16:39:00,
2013-04-28 12:44:00,52.0,51.2,30.21,NNE,27,1.0,1.0,97,0.14,,RA,0.80,VWS V14.01,2013-04-28 16:44:00,
2013-04-28 12:49:00,52.0,51.2,30.21,NNE,13,0.0,1.0,97,0.15,,RA,0.82,VWS V14.01,2013-04-28 16:49:00,
2013-04-28 12:54:00,52.1,51.3,30.20,NNE,12,0.0,0.0,97,0.15,,RA,0.83,VWS V14.01,2013-04-28 16:54:00,
2013-04-28 12:59:00,52.2,51.4,30.20,WNW,291,2.0,2.0,97,0.15,,RA,0.84,VWS V14.01,2013-04-28 16:59:00,
2013-04-28 13:04:00,52.0,51.2,30.20,NW,324,0.0,3.0,97,0.15,,RA,0.85,VWS V14.01,2013-04-28 17:04:00,
2013-04-28 13:09:00,52.0,50.9,30.20,WNW,293,0.0,0.0,96,0.16,,RA,0.86,VWS V14.01,2013-04-28 17:09:00,
2013-04-28 13:14:00,52.0,50.9,30.20,WNW,302,0.0,1.0,96,0.16,,RA,0.87,VWS V14.01,2013-04-28 17:14:00,
2013-04-28 13:19:00,52.0,51.2,30.20,WNW,302,0.0,0.0,97,0.16,,RA,0.88,VWS V14.01,2013-04-28 17:19:00,
2013-04-28 13:24:00,52.1,51.3,30.20,NW,304,1.0,1.0,97,0.15,,RA,0.89,VWS V14.01,2013-04-28 17:24:00,
2013-04-28 13:29:00,52.2,51.4,30.19,NNE,20,1.0,1.0,97,0.16,,RA,0.91,VWS V14.01,2013-04-28 17:29:00,
2013-04-28 13:34:00,52.2,51.4,30.19,North,7,1.0,1.0,97,0.17,,RA,0.93,VWS V14.01,2013-04-28 17:34:00,
2013-04-28 13:39:00,52.1,51.0,30.19,NE,44,0.0,1.0,96,0.17,, +RA,0.95,VWS V14.01,2013-04-28 17:39:00,
2013-04-28 13:44:00,52.3,51.5,30.20,WSW,240,0.0,0.0,97,0.16,, +RA,0.96,VWS V14.01,2013-04-28 17:44:00,
2013-04-28 13:49:00,52.3,51.5,30.19,WSW,240,0.0,1.0,97,0.16,, +RA,0.98,VWS V14.01,2013-04-28 17:49:00,
2013-04-28 13:54:00,52.3,51.5,30.19,WSW,240,0.0,0.0,97,0.16,, +RA,0.99,VWS V14.01,2013-04-28 17:54:00,
2013-04-28 13:59:00,52.3,51.5,30.20,SW,229,1.0,1.0,97,0.18,, +RA,1.02,VWS V14.01,2013-04-28 17:59:00,
2013-04-28 14:04:00,52.2,51.4,30.20,SW,229,0.0,1.0,97,0.20,, +RA,1.05,VWS V14.01,2013-04-28 18:04:00,
2013-04-28 14:09:00,52.2,51.4,30.19,SW,229,0.0,1.0,97,0.22,, +RA,1.07,VWS V14.01,2013-04-28 18:09:00,
2013-04-28 14:14:00,52.2,51.4,30.17,NE,44,1.0,2.0,97,0.23,, +RA,1.09,VWS V14.01,2013-04-28 18:14:00,
2013-04-28 14:19:00,52.3,51.8,30.17,NE,50,0.0,1.0,98,0.22,,RA,1.10,VWS V14.01,2013-04-28 18:19:00,
2013-04-28 14:24:00,52.4,51.6,30.18,NE,50,0.0,0.0,97,0.21,,RA,1.10,VWS V14.01,2013-04-28 18:24:00,
2013-04-28 14:29:00,52.5,51.7,30.18,SW,226,1.0,2.0,97,0.21,,RA,1.11,VWS V14.01,2013-04-28 18:29:00,
2013-04-28 14:34:00,52.6,51.8,30.18,SW,225,0.0,1.0,97,0.18,,RA,1.11,VWS V14.01,2013-04-28 18:34:00,
2013-04-28 14:39:00,52.8,52.0,30.17,SSE,150,1.0,2.0,97,0.17,,RA,1.12,VWS V14.01,2013-04-28 18:39:00,
2013-04-28 14:44:00,52.8,52.0,30.17,NNE,25,1.0,1.0,97,0.17,,RA,1.13,VWS V14.01,2013-04-28 18:44:00,
2013-04-28 14:49:00,53.1,52.5,30.17,NE,41,0.0,1.0,98,0.16,,RA,1.13,VWS V14.01,2013-04-28 18:49:00,
2013-04-28 14:54:00,53.2,52.4,30.16,NE,38,3.0,3.0,97,0.15,,RA,1.14,VWS V14.01,2013-04-28 18:54:00,
2013-04-28 14:59:00,53.1,52.3,30.16,NE,45,1.0,2.0,97,0.13,,RA,1.14,VWS V14.01,2013-04-28 18:59:00,
2013-04-28 15:04:00,53.2,52.4,30.16,NE,56,1.0,2.0,97,0.10,,RA,1.14,VWS V14.01,2013-04-28 19:04:00,
2013-04-28 15:09:00,53.4,52.6,30.15,NE,36,2.0,3.0,97,0.08,,RA,1.15,VWS V14.01,2013-04-28 19:09:00,
2013-04-28 15:14:00,53.4,52.6,30.15,ENE,64,4.0,5.0,97,0.06,,RA,1.15,VWS V14.01,2013-04-28 19:14:00,
2013-04-28 15:19:00,53.4,52.6,30.15,NNE,25,1.0,2.0,97,0.06,,RA,1.16,VWS V14.01,2013-04-28 19:19:00,
2013-04-28 15:24:00,53.4,52.6,30.14,NNE,32,0.0,1.0,97,0.06,,RA,1.16,VWS V14.01,2013-04-28 19:24:00,
2013-04-28 15:29:00,53.4,52.6,30.14,NE,44,1.0,2.0,97,0.06,,RA,1.17,VWS V14.01,2013-04-28 19:29:00,
2013-04-28 15:34:00,53.5,52.7,30.14,North,352,1.0,2.0,97,0.06,,RA,1.17,VWS V14.01,2013-04-28 19:34:00,
2013-04-28 15:39:00,53.6,52.8,30.14,NE,50,2.0,3.0,97,0.06,,RA,1.18,VWS V14.01,2013-04-28 19:39:00,
2013-04-28 15:44:00,53.7,52.9,30.14,NNW,342,0.0,2.0,97,0.05,,RA,1.18,VWS V14.01,2013-04-28 19:44:00,
2013-04-28 15:49:00,53.7,52.9,30.14,NE,36,1.0,1.0,97,0.05,,RA,1.18,VWS V14.01,2013-04-28 19:49:00,
2013-04-28 15:54:00,53.7,52.9,30.14,NE,41,1.0,1.0,97,0.06,,RA,1.19,VWS V14.01,2013-04-28 19:54:00,
2013-04-28 15:59:00,53.9,53.1,30.14,NNE,26,0.0,1.0,97,0.06,,RA,1.20,VWS V14.01,2013-04-28 19:59:00,
2013-04-28 16:04:00,53.9,53.1,30.14,NNW,336,0.0,1.0,97,0.07,,RA,1.21,VWS V14.01,2013-04-28 20:04:00,
2013-04-28 16:09:00,53.9,53.1,30.14,NE,36,0.0,1.0,97,0.07,,RA,1.22,VWS V14.01,2013-04-28 20:09:00,
2013-04-28 16:14:00,53.9,53.1,30.14,NE,43,0.0,1.0,97,0.08,,RA,1.23,VWS V14.01,2013-04-28 20:14:00,
2013-04-28 16:19:00,53.9,53.1,30.14,North,353,0.0,1.0,97,0.08,,RA,1.24,VWS V14.01,2013-04-28 20:19:00,
2013-04-28 16:24:00,54.0,53.2,30.13,NNE,32,0.0,1.0,97,0.09,,RA,1.25,VWS V14.01,2013-04-28 20:24:00,
2013-04-28 16:29:00,54.1,53.3,30.13,NE,38,1.0,2.0,97,0.09,,RA,1.26,VWS V14.01,2013-04-28 20:29:00,
2013-04-28 16:34:00,54.2,53.7,30.12,NNE,25,1.0,3.0,98,0.10,,RA,1.27,VWS V14.01,2013-04-28 20:34:00,
2013-04-28 16:39:00,54.1,53.3,30.12,North,349,0.0,2.0,97,0.09,,RA,1.27,VWS V14.01,2013-04-28 20:39:00,
2013-04-28 16:44:00,54.1,53.3,30.13,NW,319,0.0,1.0,97,0.10,,RA,1.28,VWS V14.01,2013-04-28 20:44:00,
2013-04-28 16:49:00,54.1,53.3,30.13,NW,319,0.0,0.0,97,0.11,,RA,1.29,VWS V14.01,2013-04-28 20:49:00,
2013-04-28 16:54:00,54.1,53.3,30.12,NE,38,0.0,0.0,97,0.10,,RA,1.29,VWS V14.01,2013-04-28 20:54:00,
2013-04-28 16:59:00,54.2,53.4,30.12,NNE,20,0.0,1.0,97,0.10,,RA,1.30,VWS V14.01,2013-04-28 20:59:00,
2013-04-28 17:04:00,54.2,53.4,30.12,SE,138,0.0,1.0,97,0.10,,RA,1.31,VWS V14.01,2013-04-28 21:04:00,
2013-04-28 17:09:00,54.2,53.4,30.12,East,80,1.0,2.0,97,0.10,,RA,1.32,VWS V14.01,2013-04-28 21:09:00,
2013-04-28 17:14:00,54.1,53.3,30.11,NE,44,1.0,4.0,97,0.10,,RA,1.33,VWS V14.01,2013-04-28 21:14:00,
2013-04-28 17:19:00,54.1,53.3,30.11,NE,53,2.0,3.0,97,0.09,,RA,1.33,VWS V14.01,2013-04-28 21:19:00,
2013-04-28 17:24:00,54.1,53.3,30.11,NE,41,0.0,2.0,97,0.09,,RA,1.34,VWS V14.01,2013-04-28 21:24:00,
2013-04-28 17:29:00,54.1,53.5,30.11,NE,41,0.0,0.0,98,0.08,,RA,1.34,VWS V14.01,2013-04-28 21:29:00,
2013-04-28 17:34:00,54.2,53.7,30.11,SSE,149,0.0,1.0,98,0.08,,RA,1.35,VWS V14.01,2013-04-28 21:34:00,
2013-04-28 17:39:00,54.2,53.4,30.12,East,93,0.0,1.0,97,0.08,,RA,1.35,VWS V14.01,2013-04-28 21:39:00,
2013-04-28 17:44:00,54.3,53.5,30.11,NE,36,1.0,2.0,97,0.08,,RA,1.36,VWS V14.01,2013-04-28 21:44:00,
2013-04-28 17:49:00,54.4,53.8,30.11,NE,53,0.0,1.0,98,0.07,,RA,1.36,VWS V14.01,2013-04-28 21:49:00,
2013-04-28 17:54:00,54.5,53.7,30.11,SE,127,1.0,3.0,97,0.08,,RA,1.37,VWS V14.01,2013-04-28 21:54:00,
2013-04-28 17:59:00,54.5,53.7,30.10,NNE,27,3.0,3.0,97,0.07,,-RA,1.37,VWS V14.01,2013-04-28 21:59:00,
2013-04-28 18:04:00,54.4,53.6,30.10,NNE,27,3.0,3.0,97,0.06,,-RA,1.37,VWS V14.01,2013-04-28 22:04:00,
2013-04-28 18:09:00,54.4,53.6,30.10,NE,43,2.0,3.0,97,0.06,,-RA,1.37,VWS V14.01,2013-04-28 22:09:00,
2013-04-28 18:14:00,54.4,53.6,30.10,NE,36,2.0,4.0,97,0.06,,-RA,1.38,VWS V14.01,2013-04-28 22:14:00,
2013-04-28 18:19:00,54.4,53.6,30.10,East,91,1.0,1.0,97,0.05,,RA,1.38,VWS V14.01,2013-04-28 22:19:00,
2013-04-28 18:24:00,54.5,53.7,30.11,ENE,67,2.0,2.0,97,0.04,,RA,1.38,VWS V14.01,2013-04-28 22:24:00,
2013-04-28 18:29:00,54.5,53.7,30.11,NE,41,1.0,1.0,97,0.04,,RA,1.38,VWS V14.01,2013-04-28 22:29:00,
2013-04-28 18:34:00,54.4,53.6,30.11,SE,131,1.0,1.0,97,0.04,,RA,1.39,VWS V14.01,2013-04-28 22:34:00,
2013-04-28 18:39:00,54.5,53.7,30.11,NE,35,0.0,0.0,97,0.05,,RA,1.40,VWS V14.01,2013-04-28 22:39:00,
2013-04-28 18:44:00,54.5,53.7,30.11,NE,36,0.0,0.0,97,0.04,,RA,1.40,VWS V14.01,2013-04-28 22:44:00,
2013-04-28 18:49:00,54.5,53.7,30.11,NE,36,0.0,0.0,97,0.05,,RA,1.41,VWS V14.01,2013-04-28 22:49:00,
2013-04-28 18:54:00,54.6,54.0,30.10,NNE,30,1.0,1.0,98,0.05,,RA,1.42,VWS V14.01,2013-04-28 22:54:00,
2013-04-28 18:59:00,54.5,53.7,30.11,NNE,30,0.0,1.0,97,0.06,,RA,1.43,VWS V14.01,2013-04-28 22:59:00,
2013-04-28 19:04:00,54.4,53.6,30.11,NE,38,0.0,1.0,97,0.06,,RA,1.43,VWS V14.01,2013-04-28 23:04:00,
2013-04-28 19:09:00,54.3,53.8,30.11,NE,38,0.0,0.0,98,0.07,,RA,1.44,VWS V14.01,2013-04-28 23:09:00,
2013-04-28 19:14:00,54.3,53.8,30.11,NE,38,0.0,1.0,98,0.07,,RA,1.45,VWS V14.01,2013-04-28 23:14:00,
2013-04-28 19:19:00,54.3,53.8,30.12,NE,38,0.0,0.0,98,0.08,,RA,1.46,VWS V14.01,2013-04-28 23:19:00,
2013-04-28 19:24:00,54.3,53.8,30.11,NE,39,0.0,0.0,98,0.10,,RA,1.48,VWS V14.01,2013-04-28 23:24:00,
2013-04-28 19:29:00,54.3,53.8,30.11,WNW,298,1.0,1.0,98,0.11,,RA,1.49,VWS V14.01,2013-04-28 23:29:00,
2013-04-28 19:34:00,54.3,53.8,30.11,WNW,282,1.0,2.0,98,0.11,,RA,1.50,VWS V14.01,2013-04-28 23:34:00,
2013-04-28 19:39:00,54.2,53.7,30.11,WNW,300,0.0,1.0,98,0.12,,RA,1.51,VWS V14.01,2013-04-28 23:39:00,
2013-04-28 19:44:00,54.2,53.7,30.11,WNW,302,0.0,0.0,98,0.12,,RA,1.52,VWS V14.01,2013-04-28 23:44:00,
2013-04-28 19:49:00,54.2,53.7,30.11,WNW,302,0.0,0.0,98,0.12,,RA,1.53,VWS V14.01,2013-04-28 23:49:00,
2013-04-28 19:54:00,54.2,53.7,30.11,WNW,302,0.0,1.0,98,0.12,,RA,1.54,VWS V14.01,2013-04-28 23:54:00,
2013-04-28 19:59:00,54.1,53.5,30.11,NNW,330,0.0,1.0,98,0.12,,RA,1.54,VWS V14.01,2013-04-28 23:59:00,
2013-04-28 20:04:00,54.0,53.5,30.10,NNE,12,1.0,1.0,98,0.12,,RA,1.55,VWS V14.01,2013-04-29 00:04:00,
2013-04-28 20:09:00,54.0,53.5,30.10,NE,36,0.0,0.0,98,0.12,,RA,1.56,VWS V14.01,2013-04-29 00:09:00,
2013-04-28 20:14:00,54.0,53.5,30.10,NE,35,0.0,0.0,98,0.12,,RA,1.57,VWS V14.01,2013-04-29 00:14:00,
2013-04-28 20:19:00,53.9,53.3,30.10,NE,36,0.0,0.0,98,0.11,,-RA,1.57,VWS V14.01,2013-04-29 00:19:00,
2013-04-28 20:24:00,53.9,53.3,30.10,NE,36,0.0,1.0,98,0.10,,-RA,1.58,VWS V14.01,2013-04-29 00:24:00,
2013-04-28 20:29:00,53.9,53.3,30.10,NE,36,0.0,0.0,98,0.09,,-RA,1.58,VWS V14.01,2013-04-29 00:29:00,
2013-04-28 20:34:00,53.9,53.3,30.10,NE,36,0.0,0.0,98,0.08,,-RA,1.58,VWS V14.01,2013-04-29 00:34:00,
2013-04-28 20:39:00,53.8,53.2,30.10,NE,36,0.0,0.0,98,0.07,,RA,1.58,VWS V14.01,2013-04-29 00:39:00,
2013-04-28 20:44:00,53.8,53.2,30.09,East,81,0.0,1.0,98,0.06,,RA,1.58,VWS V14.01,2013-04-29 00:44:00,
2013-04-28 20:49:00,53.8,53.2,30.09,ENE,78,0.0,2.0,98,0.05,,RA,1.58,VWS V14.01,2013-04-29 00:49:00,
2013-04-28 20:54:00,53.8,53.2,30.08,NE,56,1.0,2.0,98,0.05,,RA,1.58,VWS V14.01,2013-04-29 00:54:00,
2013-04-28 20:59:00,53.7,53.2,30.08,SE,145,1.0,2.0,98,0.04,,OVC007,1.58,VWS V14.01,2013-04-29 00:59:00,
2013-04-28 21:04:00,53.6,53.0,30.09,SSE,156,1.0,1.0,98,0.03,,OVC007,1.58,VWS V14.01,2013-04-29 01:04:00,
2013-04-28 21:09:00,53.6,53.0,30.09,South,169,0.0,1.0,98,0.03,,OVC007,1.59,VWS V14.01,2013-04-29 01:09:00,
2013-04-28 21:14:00,53.6,53.0,30.09,SW,224,0.0,1.0,98,0.02,,OVC007,1.59,VWS V14.01,2013-04-29 01:14:00,
2013-04-28 21:19:00,53.6,53.0,30.08,SW,224,0.0,1.0,98,0.02,,OVC007,1.59,VWS V14.01,2013-04-29 01:19:00,
2013-04-28 21:24:00,53.6,53.0,30.08,NE,38,1.0,2.0,98,0.01,,RA,1.59,VWS V14.01,2013-04-29 01:24:00,
2013-04-28 21:29:00,53.6,53.0,30.08,NE,39,0.0,1.0,98,0.02,,RA,1.60,VWS V14.01,2013-04-29 01:29:00,
2013-04-28 21:34:00,53.6,53.0,30.08,NNE,33,2.0,3.0,98,0.02,,RA,1.60,VWS V14.01,2013-04-29 01:34:00,
2013-04-28 21:39:00,53.5,53.0,30.08,NNE,33,0.0,1.0,98,0.02,,RA,1.60,VWS V14.01,2013-04-29 01:39:00,
2013-04-28 21:44:00,53.5,53.0,30.08,NW,322,1.0,1.0,98,0.02,,RA,1.60,VWS V14.01,2013-04-29 01:44:00,
2013-04-28 21:49:00,53.5,53.2,30.08,WNW,297,0.0,0.0,99,0.02,,RA,1.60,VWS V14.01,2013-04-29 01:49:00,
2013-04-28 21:54:00,53.5,53.0,30.08,WNW,296,0.0,0.0,98,0.02,,RA,1.60,VWS V14.01,2013-04-29 01:54:00,
2013-04-28 21:59:00,53.5,53.0,30.07,WNW,297,0.0,0.0,98,0.02,,RA,1.60,VWS V14.01,2013-04-29 01:59:00,
2013-04-28 22:04:00,53.6,53.3,30.07,NW,307,0.0,1.0,99,0.02,,RA,1.60,VWS V14.01,2013-04-29 02:04:00,
2013-04-28 22:09:00,53.6,53.3,30.06,NW,307,0.0,0.0,99,0.01,,RA,1.60,VWS V14.01,2013-04-29 02:09:00,
2013-04-28 22:14:00,53.6,53.3,30.06,NW,307,0.0,0.0,99,0.01,,RA,1.60,VWS V14.01,2013-04-29 02:14:00,
2013-04-28 22:19:00,53.6,53.3,30.05,NE,43,0.0,1.0,99,0.01,,-RA,1.60,VWS V14.01,2013-04-29 02:19:00,
2013-04-28 22:24:00,53.6,53.3,30.05,NE,39,1.0,2.0,99,0.01,,-RA,1.60,VWS V14.01,2013-04-29 02:24:00,
2013-04-28 22:29:00,53.6,53.3,30.05,ENE,58,0.0,1.0,99,0.00,,-RA,1.60,VWS V14.01,2013-04-29 02:29:00,
2013-04-28 22:34:00,53.6,53.3,30.06,ENE,58,0.0,1.0,99,0.00,,-RA,1.60,VWS V14.01,2013-04-29 02:34:00,
2013-04-28 22:39:00,53.6,53.3,30.06,ENE,58,0.0,0.0,99,0.00,,OVC006,1.60,VWS V14.01,2013-04-29 02:39:00,
2013-04-28 22:44:00,53.7,53.4,30.06,NNW,330,1.0,1.0,99,0.00,,OVC006,1.60,VWS V14.01,2013-04-29 02:44:00,
2013-04-28 22:49:00,53.7,53.4,30.07,NNW,330,1.0,1.0,99,0.00,,OVC006,1.60,VWS V14.01,2013-04-29 02:49:00,
2013-04-28 22:54:00,53.7,53.4,30.07,WNW,296,1.0,1.0,99,0.00,,OVC006,1.60,VWS V14.01,2013-04-29 02:54:00,
2013-04-28 22:59:00,53.7,53.4,30.07,WNW,297,0.0,0.0,99,0.00,,,1.60,VWS V14.01,2013-04-29 02:59:00,
2013-04-28 23:04:00,53.7,53.4,30.07,WNW,297,0.0,1.0,99,0.00,,,1.60,VWS V14.01,2013-04-29 03:04:00,
2013-04-28 23:09:00,53.7,53.4,30.08,WNW,296,0.0,0.0,99,0.00,,,1.60,VWS V14.01,2013-04-29 03:09:00,
2013-04-28 23:14:00,53.7,53.4,30.07,WNW,297,1.0,1.0,99,0.00,,,1.60,VWS V14.01,2013-04-29 03:14:00,
2013-04-28 23:19:00,53.8,53.5,30.07,WNW,296,0.0,0.0,99,0.00,,,1.60,VWS V14.01,2013-04-29 03:19:00,
2013-04-28 23:24:00,53.8,53.5,30.07,WNW,297,0.0,0.0,99,0.00,,,1.60,VWS V14.01,2013-04-29 03:24:00,
2013-04-28 23:29:00,53.8,53.5,30.07,WNW,296,0.0,0.0,99,0.00,,,1.60,VWS V14.01,2013-04-29 03:29:00,
2013-04-28 23:34:00,53.8,53.5,30.07,WNW,297,0.0,0.0,99,0.00,,,1.60,VWS V14.01,2013-04-29 03:34:00,
2013-04-28 23:39:00,53.8,53.5,30.07,WNW,296,0.0,0.0,99,0.00,,OVC004,1.60,VWS V14.01,2013-04-29 03:39:00,
2013-04-28 23:44:00,53.8,53.5,30.08,WNW,297,0.0,1.0,99,0.00,,OVC004,1.60,VWS V14.01,2013-04-29 03:44:00,
2013-04-28 23:49:00,53.8,53.5,30.08,WNW,295,0.0,1.0,99,0.00,,OVC004,1.60,VWS V14.01,2013-04-29 03:49:00,
2013-04-28 23:54:00,53.7,53.4,30.08,WNW,295,0.0,0.0,99,0.00,,OVC004,1.60,VWS V14.01,2013-04-29 03:54:00,